Torna al catalogo

STARLINK-32752

AttivoComunicazioniVLEO
NORAD 62567·PAYLOAD·🇺🇸 United States

Lanciato Jan 10, 2025 da Cape Canaveral Space Force Station

Loading…

Prossimi Passaggi (prossime 24 ore)

TLE

AggiornatoSource: CelesTrak SupGP

Epoca: Sep 14, 2026, 22:25 UTC

1 62567C 25006P   26257.93451389  .00007021  00000+0  25432-3 0  2578
2 62567  43.0024 303.9140 0001671 265.7691 113.6499 15.27572418    18

Traccia STARLINK-32752 in tempo reale con AllMySat

Download on the App Store